Time,TemperatureF,DewpointF,PressureIn,WindDirection,WindDirectionDegrees,WindSpeedMPH,WindSpeedGustMPH,Humidity,HourlyPrecipIn,Conditions,Clouds,dailyrainin,SoftwareType,DateUTC
2013-11-08 01:00:00,40.0,35.0,30.01,SW,231,8.0,11.0,81,0.00,,,-99.99,,2013-11-08 06:00:00,
2013-11-08 01:42:00,40.0,35.0,30.01,SW,231,8.0,11.0,81,0.00,,,-99.99,,2013-11-08 06:42:00,
2013-11-08 01:53:00,40.0,35.0,30.01,SW,231,8.0,11.0,81,0.00,,,-99.99,,2013-11-08 06:53:00,
2013-11-08 02:00:00,39.0,34.0,30.01,SSW,204,10.0,12.0,81,0.00,,,-99.99,,2013-11-08 07:00:00,
2013-11-08 02:42:00,39.0,34.0,30.01,SSW,204,10.0,12.0,81,0.00,,,-99.99,,2013-11-08 07:42:00,
2013-11-08 02:52:00,39.0,34.0,30.01,SSW,204,10.0,12.0,81,0.00,,,-99.99,,2013-11-08 07:52:00,
2013-11-08 03:00:00,39.0,32.0,30.03,WSW,241,0.0,15.0,77,0.00,,,-99.99,,2013-11-08 08:00:00,
2013-11-08 03:42:00,39.0,32.0,30.03,WSW,241,0.0,15.0,77,0.00,,,-99.99,,2013-11-08 08:42:00,
2013-11-08 03:52:00,39.0,32.0,30.03,WSW,241,0.0,15.0,77,0.00,,,-99.99,,2013-11-08 08:52:00,
2013-11-08 04:00:00,34.0,33.0,30.03,SSW,213,0.0,9.0,98,0.00,,,-99.99,,2013-11-08 09:00:00,
2013-11-08 04:43:00,34.0,33.0,30.03,SSW,213,0.0,9.0,98,0.00,,,-99.99,,2013-11-08 09:43:00,
2013-11-08 04:54:00,34.0,33.0,30.03,SSW,213,0.0,9.0,98,0.00,,,-99.99,,2013-11-08 09:54:00,
2013-11-08 05:00:00,36.0,28.0,30.05,SSE,163,4.0,9.0,72,0.00,,,-99.99,,2013-11-08 10:00:00,
2013-11-08 05:43:00,36.0,28.0,30.05,SSE,163,4.0,9.0,72,0.00,,,-99.99,,2013-11-08 10:43:00,
2013-11-08 05:53:00,36.0,28.0,30.05,SSE,163,4.0,9.0,72,0.00,,,-99.99,,2013-11-08 10:53:00,
2013-11-08 06:00:00,33.0,29.0,30.07,WNW,283,2.0,8.0,88,0.00,,,-99.99,,2013-11-08 11:00:00,
2013-11-08 06:43:00,33.0,29.0,30.07,WNW,283,2.0,8.0,88,0.00,,,-99.99,,2013-11-08 11:43:00,
2013-11-08 06:52:00,33.0,29.0,30.07,WNW,283,2.0,8.0,88,0.00,,,-99.99,,2013-11-08 11:52:00,
2013-11-08 07:00:00,29.0,28.0,30.09,West,270,0.0,5.0,100,0.00,,,-99.99,,2013-11-08 12:00:00,
2013-11-08 07:42:00,29.0,28.0,30.09,West,270,0.0,5.0,100,0.00,,,-99.99,,2013-11-08 12:42:00,
2013-11-08 07:52:00,29.0,28.0,30.09,West,270,0.0,5.0,100,0.00,,,-99.99,,2013-11-08 12:52:00,
2013-11-08 08:00:00,34.0,30.0,30.10,East,94,0.0,6.0,83,0.00,,,-99.99,,2013-11-08 13:00:00,
2013-11-08 08:42:00,34.0,30.0,30.10,East,94,0.0,6.0,83,0.00,,,-99.99,,2013-11-08 13:42:00,
2013-11-08 08:52:00,34.0,30.0,30.10,East,94,0.0,6.0,83,0.00,,,-99.99,,2013-11-08 13:52:00,
2013-11-08 09:00:00,39.0,28.0,30.10,WNW,302,4.0,11.0,64,0.00,,,-99.99,,2013-11-08 14:00:00,
2013-11-08 09:42:00,39.0,28.0,30.10,WNW,302,4.0,11.0,64,0.00,,,-99.99,,2013-11-08 14:42:00,
2013-11-08 09:52:00,39.0,28.0,30.10,WNW,302,4.0,11.0,64,0.00,,,-99.99,,2013-11-08 14:52:00,
2013-11-08 10:00:00,44.0,29.0,30.08,SSE,161,2.0,15.0,57,0.00,,,-99.99,,2013-11-08 15:00:00,
2013-11-08 10:44:00,44.0,29.0,30.08,SSE,161,2.0,15.0,57,0.00,,,-99.99,,2013-11-08 15:44:00,
2013-11-08 10:53:00,44.0,29.0,30.08,SSE,161,2.0,15.0,57,0.00,,,-99.99,,2013-11-08 15:53:00,
2013-11-08 11:00:00,44.0,28.0,30.09,SSW,205,1.0,18.0,53,0.00,,,-99.99,,2013-11-08 16:00:00,
2013-11-08 11:42:00,44.0,28.0,30.09,SSW,205,1.0,18.0,53,0.00,,,-99.99,,2013-11-08 16:42:00,
2013-11-08 11:53:00,44.0,28.0,30.09,SSW,205,1.0,18.0,53,0.00,,,-99.99,,2013-11-08 16:53:00,
2013-11-08 12:00:00,46.0,25.0,30.08,WSW,237,7.0,17.0,43,0.00,,,-99.99,,2013-11-08 17:00:00,
2013-11-08 12:43:00,46.0,25.0,30.08,WSW,237,7.0,17.0,43,0.00,,,-99.99,,2013-11-08 17:43:00,
2013-11-08 12:53:00,46.0,25.0,30.08,WSW,237,7.0,17.0,43,0.00,,,-99.99,,2013-11-08 17:53:00,
2013-11-08 13:00:00,46.0,25.0,30.09,SW,216,7.0,19.0,44,0.00,,,-99.99,,2013-11-08 18:00:00,
2013-11-08 13:43:00,46.0,25.0,30.09,SW,216,7.0,19.0,44,0.00,,,-99.99,,2013-11-08 18:43:00,
2013-11-08 13:53:00,46.0,25.0,30.09,SW,216,7.0,19.0,44,0.00,,,-99.99,,2013-11-08 18:53:00,
2013-11-08 14:00:00,46.0,22.0,30.09,South,183,4.0,22.0,40,0.00,,,-99.99,,2013-11-08 19:00:00,
2013-11-08 14:42:00,46.0,22.0,30.09,South,183,4.0,22.0,40,0.00,,,-99.99,,2013-11-08 19:42:00,
2013-11-08 14:53:00,46.0,22.0,30.09,South,183,4.0,22.0,40,0.00,,,-99.99,,2013-11-08 19:53:00,
2013-11-08 15:00:00,45.0,24.0,30.11,North,354,1.0,16.0,43,0.00,,,-99.99,,2013-11-08 20:00:00,
2013-11-08 15:42:00,45.0,24.0,30.11,North,354,1.0,16.0,43,0.00,,,-99.99,,2013-11-08 20:42:00,
2013-11-08 15:53:00,45.0,24.0,30.11,North,354,1.0,16.0,43,0.00,,,-99.99,,2013-11-08 20:53:00,
2013-11-08 16:00:00,46.0,25.0,30.13,West,272,4.0,15.0,44,0.00,,,-99.99,,2013-11-08 21:00:00,
2013-11-08 16:45:00,46.0,25.0,30.13,West,272,4.0,15.0,44,0.00,,,-99.99,,2013-11-08 21:45:00,
2013-11-08 16:54:00,46.0,25.0,30.13,West,272,4.0,15.0,44,0.00,,,-99.99,,2013-11-08 21:54:00,
2013-11-08 17:00:00,43.0,23.0,30.15,SSW,212,8.0,14.0,44,0.00,,,-99.99,,2013-11-08 22:00:00,
2013-11-08 17:43:00,43.0,23.0,30.15,SSW,212,8.0,14.0,44,0.00,,,-99.99,,2013-11-08 22:43:00,
2013-11-08 17:53:00,43.0,23.0,30.15,SSW,212,8.0,14.0,44,0.00,,,-99.99,,2013-11-08 22:53:00,
2013-11-08 18:00:00,39.0,27.0,30.19,WNW,298,0.0,17.0,62,0.00,,,-99.99,,2013-11-08 23:00:00,
2013-11-08 18:43:00,39.0,27.0,30.19,WNW,298,0.0,17.0,62,0.00,,,-99.99,,2013-11-08 23:43:00,
2013-11-08 18:53:00,39.0,27.0,30.19,WNW,298,0.0,17.0,62,0.00,,,-99.99,,2013-11-08 23:53:00,
2013-11-08 19:00:00,33.0,29.0,30.21,NNW,348,0.0,3.0,84,0.00,,,-99.99,,2013-11-09 00:00:00,
2013-11-08 19:52:00,33.0,29.0,30.21,NNW,348,0.0,3.0,84,0.00,,,-99.99,,2013-11-09 00:52:00,
2013-11-08 22:00:00,30.0,29.0,30.25,NW,321,0.0,3.0,95,0.00,,,-99.99,,2013-11-09 03:00:00,
2013-11-08 22:44:00,30.0,29.0,30.25,NW,321,0.0,3.0,95,0.00,,,-99.99,,2013-11-09 03:44:00,
2013-11-08 22:54:00,30.0,29.0,30.25,NW,321,0.0,3.0,95,0.00,,,-99.99,,2013-11-09 03:54:00,
2013-11-08 23:00:00,32.0,29.0,30.26,NNE,23,2.0,7.0,90,0.00,,,-99.99,,2013-11-09 04:00:00,
2013-11-08 23:43:00,32.0,29.0,30.26,NNE,23,2.0,7.0,90,0.00,,,-99.99,,2013-11-09 04:43:00,
2013-11-08 23:54:00,32.0,29.0,30.26,NNE,23,2.0,7.0,90,0.00,,,-99.99,,2013-11-09 04:54:00,